Simultaneous Nadir Overpasses (SNOs) Predictions

Prediction of SNOs between AQUA and GOES-15 Satellite Orbit:

Table of predicted SNOs for the next 14.0 days since TLE Epoch: 4/11/2025
Index Date Time (AQUA) AQUA Lat,Lon GOES-15 Lat,Lon Distance(km) Time Diff (sec)
1 04/11/2025 22:40:47 0.59, 58.99 0.08, 61.31 264.68 80
2 04/13/2025 22:20:50 -0.45, 63.87 0.08, 61.32 289.57 80
3 04/14/2025 10:40:13 -0.51, 59.18 -0.07, 61.36 248.09 80
4 04/16/2025 10:20:15 0.50, 64.08 -0.07, 61.39 305.81 80
5 04/16/2025 22:39:29 0.47, 59.42 0.06, 61.36 220.57 80
6 04/18/2025 22:19:29 -0.57, 64.32 0.07, 61.39 333.35 80
7 04/19/2025 10:38:52 -0.42, 59.63 -0.06, 61.43 204.06 80
8 04/21/2025 10:18:50 0.59, 64.54 -0.07, 61.47 349.87 80
9 04/21/2025 22:38:04 0.40, 59.89 0.06, 61.45 176.85 80
10 04/23/2025 22:18:01 -0.63, 64.81 0.07, 61.48 377.62 80
11 04/24/2025 10:37:23 -0.36, 60.12 -0.05, 61.52 159.24 80
